Tracking 32139 objects as of 16-Nov-2025
HD Live streaming from Space Station
objects crossing your sky now

STARLINK-35224

Track STARLINK-35224 now!
10-day predictions
STARLINK-35224 is classified as:


NORAD ID: 65811
Int'l Code: 2025-218W
Perigee: 555.4 km
Apogee: 557.9 km
Inclination: 97.6 °
Period: 95.6 minutes
Semi major axis: 6927 km
RCS: Unknown
Launch date: September 26, 2025
Source: United States (US)
Launch site: AIR FORCE EASTERN TEST RANGE (AFETR)
Your satellite tracking list
Your tracking list is empty




NASA's NSSDC Master Catalog

Two Line Element Set (TLE):
1 65811U 25218W   25319.85701426  .00014119  00000-0  98092-3 0  9999
2 65811  97.6018 180.7847 0001767  74.1385 286.0036 15.05642738  7843
Source of the keplerian elements: AFSPC